Chillicothe, MO

12:46 PM CDT on June 22, 2017 (GMT -0500)
Chillicothe

Weather History for KCDJ - June, 2014

Change the Weather History Date:

Monday, June 9, 2014

  Actual Average (KIRK) Record (KIRK)
Temperature  
Mean Temperature 69 °F -  
Max Temperature 78 °F 79 °F 94 °F (1972)
Min Temperature 61 °F 58 °F 46 °F (1930)
Cooling Degree Days 4    
Growing Degree Days 19 (Base 50)    
Moisture  
Dew Point 59 °F    
Average Humidity 71    
Maximum Humidity 90    
Minimum Humidity 51    
Precipitation  
Precipitation 0.00 in - - ()
Sea Level Pressure  
Sea Level Pressure 29.85 in    
Wind  
Wind Speed 6 mph (East)    
Max Wind Speed 15 mph    
Max Gust Speed 23 mph    
Averages and records for this station are not official NWS values.
T = Trace of Precipitation, MM = Missing Value Source: NWS Daily Summary

Daily Weather History Graph

Daily Weather History Graph

Search for Another Location

Airport or City:

Trip Planner

Search our weather history database for the weather conditions in past years. The results will help you decide how hot, cold, wet, or windy it might be!

Date:

Astronomy

Jun. 09, 2014 Rise Set
Actual Time 5:45 AM CDT 8:41 PM CDT
Civil Twilight 5:13 AM CDT 9:14 PM CDT
Nautical Twilight 4:32 AM CDT 9:55 PM CDT
Astronomical Twilight 3:44 AM CDT 10:42 PM CDT
Moon 5:03 PM CDT (6/9) 3:13 AM CDT (6/9)
Length of Visible Light 16h 00m
Length of Day
14h 55m
Waxing Gibbous, 85% of the Moon is Illuminated
Jun 9
Waxing Gibbous
Jun 12
Full
Jun 19
Last Quarter
Jun 27
New
Jul 5
First Quarter

Hourly Weather History & Observations

Time (CDT) Temp. Dew Point Humidity Pressure Visibility Wind Dir Wind Speed Gust Speed Precip Events Conditions
12:52 AM 64.0 °F 59.0 °F 84% 29.96 in - East 4.6 mph - N/A   Unknown
1:52 AM 63.0 °F 57.9 °F 84% 29.94 in - East 4.6 mph - N/A   Unknown
2:52 AM 62.1 °F 57.9 °F 86% 29.94 in - East 3.5 mph - N/A   Unknown
3:52 AM 62.1 °F 57.9 °F 86% 29.92 in - Calm Calm - N/A   Unknown
4:52 AM 61.0 °F 57.9 °F 90% 29.92 in - NE 3.5 mph - N/A   Unknown
5:52 AM 61.0 °F 57.0 °F 87% 29.89 in - Variable 3.5 mph - N/A   Unknown
6:52 AM 63.0 °F 59.0 °F 87% 29.88 in - East 3.5 mph - N/A   Unknown
7:52 AM 66.0 °F 61.0 °F 84% 29.90 in - ESE 6.9 mph - N/A   Unknown
8:52 AM 69.1 °F 62.1 °F 78% 29.89 in - East 6.9 mph - N/A   Unknown
9:52 AM 73.0 °F 62.1 °F 68% 29.89 in - East 9.2 mph - N/A   Unknown
10:52 AM 73.0 °F 61.0 °F 66% 29.88 in - ESE 11.5 mph - N/A   Unknown
11:52 AM 75.0 °F 61.0 °F 62% 29.86 in - East 8.1 mph - N/A   Unknown
1:52 PM 75.9 °F 60.1 °F 58% 29.83 in - East 11.5 mph - N/A   Unknown
2:52 PM 77.0 °F 59.0 °F 54% 29.80 in - ENE 15.0 mph 23.0 mph N/A   Unknown
3:52 PM 75.0 °F 55.9 °F 51% 29.79 in - ENE 9.2 mph 18.4 mph N/A   Unknown
4:52 PM 75.0 °F 57.0 °F 53% 29.78 in - ENE 9.2 mph 17.3 mph N/A   Unknown
5:52 PM 73.9 °F 57.0 °F 55% 29.77 in - ENE 6.9 mph 17.3 mph N/A   Unknown
6:52 PM 72.0 °F 59.0 °F 64% 29.77 in - Variable 3.5 mph - N/A   Unknown
7:52 PM 72.0 °F 57.9 °F 61% 29.78 in - NE 5.8 mph - N/A   Unknown
8:52 PM 71.1 °F 57.9 °F 63% 29.78 in - ESE 4.6 mph - N/A   Unknown
9:52 PM 70.0 °F 59.0 °F 68% 29.79 in - NE 4.6 mph - N/A   Unknown
10:52 PM 68.0 °F 59.0 °F 73% 29.78 in - NE 8.1 mph - N/A   Unknown
11:52 PM 68.0 °F 59.0 °F 73% 29.78 in - NE 6.9 mph - N/A   Unknown